Location: Dittelbrunn
(50.0738°N, 10.2196°E)
Time: 23:28:07
(UTC+00:00)

Cosmos 2082 Rocket - Pass Details

Date: 18 September 2020
Orbit: 834 x 853 km, 71.0° (Epoch: 30 October)

Event Time Altitude Azimuth Distance (km) Brightness Sun altitude
Rises 18:55:06 0° 332° (NNW) 3,393 6.1 -14.9°
Reaches altitude 10° 18:58:31 10° 353° (N) 2,456 5.0 -15.4°
Maximum altitude 19:02:02 17° 32° (NNE) 2,025 4.1 -15.9°
Enters shadow 19:04:47 12° 64° (ENE) 2,295 4.1 -16.3°
